Find OneWeb SL0228

NORAD ID: 48780 Int'l Des: 2021-045 Owner: ONEWEBN Country: UK Constellation: oneweb operational
LEOCIRCULARPOLARONEWEB_TYPE

当前视图

正在加载3D地球...

About OneWeb SL0228

OneWeb SL0228 (NORAD 48780) is a oneweb constellation satellite launched May 28, 2021 by ONEWEBN of UK. It operates in LEO, CIRCULAR, POLAR, ONEWEB_TYPE orbit with a mass of 148.00 kg.

关于 OneWeb SL0228

正在加载描述...

即将过境

Passes for default location (London). Set your location on the main map for personalized predictions.

高度历史

Loading altitude history...

两行轨道根数

1 48780U 21045P 26171.28956439 .00000052 00000-0 10298-3 0 9992
2 48780 87.9014 258.5651 0001919 102.1334 258.0012 13.15546939244738
Epoch: Jun 20, 2026 • Age: 42 hours

当前状态

高度 1230.2 km
速度 7.24 km/s
星下点 -73.09°S, 27.31°W
发射日期 May 28, 2021
运行时间 5 years
类型 internet

技术详情

分类 Payload
质量 148.00 kg
干质量 140.00 kg
总质量 148.00 kg
长度 1.30 m
直径 1.00 m
跨度 5.00 m
形状 Trapezoid+2 pan
制造商 ONEWUS
平台类型 ARROW
阶段状态 In Orbit
所有者/国家 ONEWEBN/UK

Most Searched